User: anonymous   Login
Location: Unspecified
(0.0000°N, 0.0000°E)
Time: 06:06:14
(UTC+00:00)
Language:

ASTRA 1KR - Orbit

View from above orbital plane
View from above orbital plane
View from above satellite
View from above satellite

Ground track
Ground track

The orbit data is extracted from the following two-line orbital elements,

1 29055U 06012A   14304.25034369  .00000107  00000-0  00000+0 0  1757
2 29055 000.0602 298.2295 0004100 297.5834 272.9955 01.00271536 31201
Epoch (UTC): 31 October 2014 06:00:29
Eccentricity: 0.0004100
inclination: 0.0602°
perigee height: 35769 km
apogee height: 35803 km
right ascension of ascending node: 298.2295°
argument of perigee: 297.5834°
revolutions per day: 1.00271536
mean anomaly at epoch: 272.9955°
orbit number at epoch: 3120

The dashed part of the orbit path shows where the satellite is in the earth's shadow,  

DLR